Total_Precipitation_Accumulation
0.08 0.16 0.24 0.26 0.23 0.20 0.17 0.16 0.28 0.32 0.43 0.54 0.71 0.70 0.72 0.70 0.64 0.61 0.72 0.68 0.63 0.63 0.70 0.72 0.77 0.78 0.79 0.82 0.84 1.04 1.56 1.83 1.79 1.71 1.75 1.74 1.74 1.86 1.94 1.99 2.01 2.26 2.41 2.49
0.11 0.15 0.17 0.18 0.21 0.19 0.14 0.13 0.12 0.19 0.36 0.42 0.67 0.84 0.81 0.82 0.79 0.72 0.71 0.67 0.65 0.57 0.66 0.77 0.85 0.88 0.89 0.95 1.01 1.14 1.50 1.79 1.76 1.66 1.64 1.59 1.67 1.81 1.94 2.02 2.19 2.38 2.38 2.38
0.17 0.20 0.19 0.26 0.22 0.18 0.16 0.16 0.17 0.27 0.41 0.43 0.52 0.70 0.80 0.82 0.78 0.71 0.72 0.65 0.65 0.69 0.77 0.96 0.91 0.94 1.02 0.96 1.02 1.20 1.56 1.81 1.83 1.74 1.70 1.67 1.63 1.81 2.01 2.24 2.43 2.52 2.46 2.40
0.22 0.26 0.38 0.29 0.22 0.23 0.26 0.30 0.31 0.34 0.38 0.42 0.56 0.64 0.78 0.95 0.82 0.68 0.71 0.73 0.81 0.79 0.84 0.93 0.93 0.99 1.06 1.08 1.12 1.28 1.57 1.79 1.87 1.85 1.88 1.96 1.98 2.05 2.24 2.50 2.68 2.69 2.65 2.53
0.32 0.36 0.42 0.39 0.31 0.35 0.40 0.46 0.48 0.50 0.44 0.50 0.58 0.70 0.87 0.82 0.81 0.85 0.86 0.86 0.91 0.99 1.03 1.12 1.11 1.07 1.15 1.30 1.36 1.42 1.49 1.73 1.93 2.05 2.12 2.10 2.15 2.42 2.62 2.79 2.82 2.77 2.85 2.76
0.45 0.54 0.61 0.60 0.44 0.38 0.47 0.80 0.63 0.65 0.63 0.57 0.62 0.90 1.05 0.87 0.79 0.79 0.90 1.01 1.01 1.07 1.13 1.16 1.21 1.28 1.35 1.47 1.63 1.76 1.86 2.02 2.31 2.52 2.65 2.68 2.76 2.82 2.89 2.99 2.94 2.95 2.87 2.82
0.67 0.80 0.74 0.58 0.51 0.46 0.88 1.22 0.89 0.86 0.84 0.75 0.87 0.99 1.00 0.87 0.81 0.77 0.80 0.95 1.04 1.07 1.17 1.27 1.28 1.43 1.71 1.85 1.95 2.13 2.30 2.38 2.64 2.99 3.17 3.13 3.15 3.04 2.96 2.96 2.97 2.97 2.85 2.75
0.90 1.15 1.22 0.68 0.62 0.98 1.23 1.04 1.05 1.07 1.05 0.98 0.97 1.02 1.03 1.00 0.86 0.81 0.83 0.89 1.01 1.10 1.18 1.38 1.64 1.84 2.12 2.30 2.37 2.45 2.61 2.91 3.14 3.31 3.14 3.05 3.21 3.10 3.11 3.17 3.14 3.04 2.94 2.83
1.18 1.40 1.20 0.84 0.95 1.13 1.12 1.10 1.14 1.12 1.07 0.97 0.93 1.09 1.05 0.99 0.98 0.87 0.84 0.89 0.99 1.10 1.28 1.48 1.79 2.19 2.44 2.53 2.74 2.75 2.81 3.01 3.08 3.14 3.25 3.38 3.44 3.31 3.24 3.23 3.16 2.98 2.87 2.68
1.48 1.54 1.30 1.14 1.12 1.08 1.11 1.14 1.10 1.03 0.99 1.00 0.97 0.99 1.00 0.96 0.94 0.90 0.91 0.99 1.04 1.15 1.36 1.66 1.97 2.31 2.47 2.54 2.59 2.62 2.66 2.70 2.81 2.99 3.12 3.23 3.45 3.45 3.32 3.14 3.04 2.95 2.90 2.76
1.97 2.04 1.89 1.74 1.49 1.31 1.26 1.19 1.23 1.19 1.11 1.08 1.04 0.99 0.95 0.96 0.95 0.95 0.96 1.07 1.17 1.28 1.39 1.55 1.80 2.08 2.21 2.39 2.51 2.68 2.73 2.66 2.58 2.62 2.75 2.90 3.02 3.11 3.05 3.00 2.86 2.73 2.57 2.51
2.27 2.00 1.97 2.12 1.85 1.61 1.55 1.53 1.53 1.49 1.43 1.31 1.23 1.17 1.09 1.04 0.97 0.94 0.95 1.04 1.17 1.31 1.47 1.63 1.80 1.99 2.10 2.30 2.47 2.63 2.65 2.54 2.51 2.47 2.55 2.61 2.62 2.59 2.46 2.36 2.22 2.05 1.98 1.91
1.91 1.82 1.80 1.97 1.89 1.80 1.86 2.00 2.02 1.88 1.65 1.37 1.25 1.21 1.14 1.02 0.96 0.96 1.03 1.16 1.32 1.40 1.53 1.72 1.81 1.93 2.09 2.28 2.44 2.58 2.55 2.42 2.29 2.19 2.21 2.21 2.26 2.42 2.48 2.26 2.06 1.84 1.73 1.61
1.80 2.02 2.24 2.24 2.20 2.04 2.03 2.14 2.14 1.91 1.77 1.59 1.39 1.32 1.23 1.12 1.03 1.01 1.05 1.17 1.29 1.38 1.40 1.51 1.67 1.77 1.96 2.16 2.30 2.40 2.40 2.42 2.30 2.18 2.16 2.16 2.24 2.34 2.48 2.46 2.17 1.80 1.70 1.61
2.04 2.00 2.19 2.30 2.18 2.18 2.13 2.13 2.19 2.06 1.83 1.81 1.70 1.51 1.41 1.40 1.38 1.33 1.27 1.28 1.39 1.47 1.50 1.53 1.65 1.76 1.94 2.22 2.29 2.26 2.23 2.19 2.15 2.20 2.17 2.16 2.29 2.34 2.33 2.38 2.23 2.00 1.74 1.53
2.41 2.16 2.20 2.30 2.18 2.08 2.02 1.98 1.97 1.93 1.79 1.72 1.71 1.66 1.50 1.46 1.49 1.49 1.51 1.57 1.74 1.78 1.76 1.77 1.80 1.85 2.10 2.38 2.39 2.28 2.16 2.09 1.98 1.95 1.94 1.91 1.97 2.08 2.12 2.24 2.20 2.09 1.91 1.63
2.46 2.47 2.44 2.24 2.08 2.00 1.88 1.75 1.70 1.68 1.75 1.75 1.61 1.56 1.48 1.36 1.37 1.47 1.59 1.66 1.76 1.74 1.71 1.76 1.78 1.86 2.11 2.34 2.39 2.30 2.09 1.91 1.67 1.54 1.59 1.70 1.83 1.96 1.99 2.04 2.13 2.07 1.85 1.60
2.13 2.17 2.19 2.02 1.91 1.84 1.77 1.63 1.51 1.45 1.53 1.55 1.42 1.39 1.39 1.43 1.51 1.60 1.75 1.78 1.78 1.73 1.62 1.56 1.56 1.71 1.94 2.02 2.04 2.06 1.95 1.78 1.57 1.45 1.49 1.59 1.71 1.90 1.98 1.93 1.91 1.88 1.76 1.56
1.96 1.90 1.90 1.75 1.67 1.62 1.55 1.46 1.45 1.41 1.38 1.47 1.44 1.38 1.41 1.50 1.65 1.75 1.80 1.97 2.02 1.86 1.64 1.49 1.52 1.55 1.71 1.76 1.80 1.89 1.85 1.77 1.64 1.55 1.62 1.67 1.72 1.79 1.80 1.78 1.73 1.66 1.59 1.49
2.02 1.89 1.88 1.75 1.61 1.57 1.50 1.41 1.34 1.33 1.38 1.44 1.49 1.52 1.62 1.68 1.82 1.96 2.03 2.09 2.12 1.97 1.68 1.51 1.43 1.45 1.51 1.56 1.64 1.59 1.64 1.68 1.63 1.56 1.58 1.63 1.62 1.66 1.62 1.61 1.57 1.51 1.44 1.43
2.02 1.99 1.94 1.87 1.74 1.59 1.51 1.47 1.42 1.39 1.38 1.45 1.57 1.64 1.77 1.86 1.96 2.13 2.34 2.32 2.11 1.95 1.71 1.52 1.36 1.33 1.33 1.43 1.51 1.49 1.53 1.60 1.62 1.63 1.62 1.62 1.65 1.68 1.61 1.55 1.52 1.51 1.49 1.47
1.82 1.87 1.84 1.75 1.67 1.59 1.51 1.50 1.47 1.45 1.45 1.53 1.60 1.69 1.82 1.89 2.00 2.12 2.18 2.34 2.19 2.06 1.69 1.42 1.28 1.24 1.24 1.31 1.28 1.39 1.43 1.46 1.51 1.53 1.54 1.55 1.55 1.59 1.59 1.51 1.45 1.37 1.35 1.36
1.66 1.68 1.73 1.72 1.67 1.63 1.55 1.53 1.55 1.54 1.61 1.72 1.76 1.85 1.94 1.92 2.01 2.37 2.45 2.19 2.05 1.93 1.54 1.37 1.36 1.30 1.27 1.19 1.21 1.29 1.33 1.38 1.40 1.32 1.27 1.30 1.35 1.43 1.48 1.44 1.43 1.35 1.31 1.33
1.67 1.59 1.63 1.60 1.54 1.59 1.59 1.54 1.60 1.73 1.78 1.81 1.77 1.81 1.94 1.96 1.91 1.98 2.21 2.25 2.07 1.84 1.52 1.47 1.40 1.29 1.24 1.17 1.30 1.37 1.36 1.36 1.35 1.22 1.11 1.13 1.20 1.31 1.40 1.45 1.45 1.40 1.34 1.32
1.66 1.53 1.43 1.46 1.57 1.68 1.70 1.71 1.80 1.86 1.81 1.78 1.66 1.66 1.83 1.98 2.05 1.97 1.90 1.91 1.98 1.79 1.59 1.53 1.43 1.35 1.16 1.10 1.26 1.40 1.43 1.45 1.36 1.25 1.17 1.22 1.25 1.30 1.33 1.35 1.36 1.31 1.30 1.29
1.70 1.57 1.50 1.43 1.51 1.63 1.72 1.85 1.98 1.97 1.93 1.95 1.78 1.63 1.74 1.81 1.75 1.74 1.74 1.73 1.75 1.76 1.59 1.52 1.40 1.35 1.23 1.19 1.26 1.38 1.52 1.59 1.45 1.30 1.27 1.34 1.34 1.31 1.31 1.28 1.27 1.27 1.23 1.18
1.61 1.57 1.57 1.51 1.57 1.63 1.73 1.88 2.06 2.12 2.08 2.08 1.94 1.78 1.72 1.64 1.52 1.52 1.54 1.63 1.65 1.65 1.63 1.59 1.46 1.35 1.27 1.25 1.27 1.32 1.42 1.49 1.45 1.39 1.35 1.38 1.40 1.40 1.33 1.25 1.22 1.20 1.20 1.15